When you browse on this site, cookies collect data to enhance your experience and personalize the content and advertising you see.
Visit our Privacy Policy to learn more. By continuing to use the site, you agree to this use of cookies and data.
  • In Romania
  • List of Countries
  • For 7 days
  • Water Temperature
  • Satellite Maps
  • Weather Map
  • Weather Widgets
  • user-avatar
    Login

    Hourly Weather Toledo

    Today, 23 February, Saturday

    Time Temperature Precipitation Wind Pressure Humidity
    00:00 -3°C° 0 mm 4 mps 754 mmHg 74%
    01:00 -2°C° 0 mm 3 mps 753 mmHg 76%
    02:00 -2°C° 0 mm 3 mps 753 mmHg 78%
    03:00 -2°C° 0 mm 3 mps 752 mmHg 79%
    04:00 -3°C° 0 mm 4 mps 752 mmHg 79%
    05:00 -3°C° 0 mm 4 mps 751 mmHg 79%
    06:00 -2°C° 0 mm 3 mps 750 mmHg 82%
    07:00 -1°C° 0 mm 3 mps 750 mmHg 79%
    08:00 -1°C° 0 mm 4 mps 749 mmHg 76%
    09:00 0°C° 0 mm 4 mps 748 mmHg 74%
    10:00 +1°C° 0 mm 4 mps 748 mmHg 71%
    11:00 +3°C° 0 mm 4 mps 747 mmHg 69%
    12:00 +5°C° 0 mm 4 mps 746 mmHg 67%
    13:00 +5°C° 0 mm 4 mps 745 mmHg 71%
    14:00 +6°C° 0 mm 4 mps 744 mmHg 75%
    15:00 +8°C° 0 mm 3 mps 743 mmHg 79%
    16:00 +7°C° 0 mm 3 mps 742 mmHg 84%
    17:00 +5°C° 0 mm 3 mps 742 mmHg 89%
    18:00 +5°C° 0 mm 3 mps 741 mmHg 94%
    19:00 +5°C° 0.1 mm 4 mps 740 mmHg 95%
    20:00 +6°C° 0.1 mm 4 mps 739 mmHg 96%
    21:00 +6°C° 0.1 mm 5 mps 738 mmHg 96%
    22:00 +7°C° 1 mm 5 mps 736 mmHg 96%
    23:00 +8°C° 1 mm 6 mps 735 mmHg 95%

    Tomorrow, 24 February, Sunday

    Time Temperature Precipitation Wind Pressure Humidity
    00:00 +8°C° 1 mm 6 mps 733 mmHg 95%
    01:00 +9°C° 0.6 mm 7 mps 731 mmHg 94%
    02:00 +10°C° 0.6 mm 8 mps 730 mmHg 92%
    03:00 +11°C° 0.6 mm 10 mps 729 mmHg 91%
    04:00 +10°C° 0.3 mm 9 mps 728 mmHg 85%
    05:00 +8°C° 0.3 mm 9 mps 727 mmHg 80%
    06:00 +7°C° 0.3 mm 8 mps 726 mmHg 75%
    07:00 +6°C° 0.1 mm 10 mps 726 mmHg 73%
    08:00 +4°C° 0.1 mm 11 mps 727 mmHg 72%
    09:00 +3°C° 0.1 mm 13 mps 727 mmHg 71%
    10:00 +1°C° 0.2 mm 13 mps 728 mmHg 70%
    11:00 +1°C° 0.2 mm 14 mps 729 mmHg 69%
    12:00 0°C° 0.2 mm 14 mps 730 mmHg 68%
    13:00 -1°C° 0.1 mm 14 mps 731 mmHg 67%
    14:00 -2°C° 0.1 mm 14 mps 732 mmHg 67%
    15:00 -4°C° 0.1 mm 14 mps 733 mmHg 66%
    16:00 -5°C° 0 mm 14 mps 734 mmHg 65%
    17:00 -6°C° 0 mm 14 mps 736 mmHg 64%
    18:00 -8°C° 0 mm 14 mps 737 mmHg 62%
    19:00 -8°C° 0 mm 14 mps 738 mmHg 62%
    20:00 -9°C° 0 mm 14 mps 739 mmHg 61%
    21:00 -9°C° 0 mm 14 mps 739 mmHg 60%
    22:00 -10°C° 0 mm 13 mps 740 mmHg 59%
    23:00 -10°C° 0 mm 13 mps 741 mmHg 58%

    Day after tomorrow, 25 February, Monday

    Time Temperature Precipitation Wind Pressure Humidity
    00:00 -11°C° 0 mm 13 mps 742 mmHg 56%
    01:00 -12°C° 0 mm 12 mps 743 mmHg 56%
    02:00 -12°C° 0 mm 12 mps 744 mmHg 56%
    03:00 -13°C° 0 mm 12 mps 745 mmHg 55%
    04:00 -13°C° 0 mm 11 mps 746 mmHg 56%
    05:00 -14°C° 0 mm 10 mps 747 mmHg 56%
    06:00 -14°C° 0 mm 10 mps 749 mmHg 57%
    07:00 -14°C° 0 mm 9 mps 750 mmHg 55%
    08:00 -14°C° 0 mm 9 mps 751 mmHg 53%
    09:00 -12°C° 0 mm 9 mps 752 mmHg 51%
    10:00 -12°C° 0 mm 9 mps 752 mmHg 48%
    11:00 -11°C° 0 mm 9 mps 753 mmHg 46%
    12:00 -10°C° 0 mm 8 mps 753 mmHg 43%
    13:00 -10°C° 0 mm 8 mps 753 mmHg 42%
    14:00 -8°C° 0 mm 7 mps 753 mmHg 42%
    15:00 -8°C° 0 mm 7 mps 754 mmHg 41%
    16:00 -9°C° 0 mm 7 mps 754 mmHg 44%
    17:00 -9°C° 0 mm 6 mps 755 mmHg 46%
    18:00 -10°C° 0 mm 5 mps 755 mmHg 49%
    19:00 -10°C° 0 mm 5 mps 756 mmHg 51%
    20:00 -11°C° 0 mm 5 mps 756 mmHg 52%
    21:00 -11°C° 0 mm 5 mps 757 mmHg 54%
    22:00 -10°C° 0 mm 4 mps 757 mmHg 55%
    23:00 -11°C° 0 mm 4 mps 757 mmHg 56%

    26 February, Tuesday

    Time Temperature Precipitation Wind Pressure Humidity
    00:00 -11°C° 0 mm 4 mps 757 mmHg 57%
    01:00 -11°C° 0 mm 4 mps 757 mmHg 57%
    02:00 -10°C° 0 mm 3 mps 757 mmHg 57%
    03:00 -10°C° 0 mm 3 mps 757 mmHg 57%
    04:00 -10°C° 0 mm 3 mps 758 mmHg 58%
    05:00 -9°C° 0 mm 2 mps 758 mmHg 58%
    06:00 -10°C° 0 mm 2 mps 758 mmHg 59%
    07:00 -9°C° 0 mm 2 mps 759 mmHg 56%
    08:00 -9°C° 0 mm 2 mps 759 mmHg 53%
    09:00 -8°C° 0 mm 2 mps 759 mmHg 50%
    10:00 -7°C° 0 mm 2 mps 759 mmHg 45%
    11:00 -4°C° 0 mm 1 mps 759 mmHg 41%
    12:00 -4°C° 0 mm 1 mps 758 mmHg 37%
    13:00 -5°C° 0 mm 2 mps 758 mmHg 37%
    14:00 -5°C° 0 mm 2 mps 757 mmHg 38%
    15:00 -5°C° 0 mm 2 mps 757 mmHg 38%
    16:00 -6°C° 0 mm 3 mps 756 mmHg 44%
    17:00 -6°C° 0 mm 3 mps 756 mmHg 49%
    18:00 -8°C° 0 mm 4 mps 756 mmHg 55%
    19:00 -8°C° 0.2 mm 4 mps 756 mmHg 63%
    20:00 -8°C° 0.2 mm 4 mps 756 mmHg 72%
    21:00 -8°C° 0.2 mm 5 mps 756 mmHg 80%
    22:00 -8°C° 0 mm 5 mps 755 mmHg 78%
    23:00 -8°C° 0 mm 5 mps 754 mmHg 77%

    27 February, Wednesday

    Time Temperature Precipitation Wind Pressure Humidity
    00:00 -8°C° 0 mm 5 mps 754 mmHg 75%
    01:00 -8°C° 0 mm 5 mps 753 mmHg 72%
    02:00 -8°C° 0 mm 5 mps 752 mmHg 70%
    03:00 -7°C° 0 mm 5 mps 752 mmHg 67%
    04:00 -7°C° 0 mm 5 mps 751 mmHg 66%
    05:00 -7°C° 0 mm 5 mps 750 mmHg 65%
    06:00 -7°C° 0 mm 4 mps 749 mmHg 64%
    07:00 -5°C° 0 mm 4 mps 749 mmHg 63%
    08:00 -4°C° 0 mm 4 mps 748 mmHg 61%
    09:00 -2°C° 0 mm 3 mps 747 mmHg 60%
    10:00 -1°C° 0.4 mm 3 mps 746 mmHg 66%
    11:00 -1°C° 0.4 mm 3 mps 746 mmHg 72%
    12:00 +1°C° 0.4 mm 2 mps 745 mmHg 79%
    13:00 +1°C° 0.6 mm 3 mps 744 mmHg 82%
    14:00 0°C° 0.6 mm 4 mps 744 mmHg 85%
    15:00 +1°C° 0.6 mm 4 mps 744 mmHg 89%
    16:00 0°C° 0.1 mm 5 mps 744 mmHg 87%
    17:00 -1°C° 0.1 mm 5 mps 745 mmHg 85%
    18:00 -2°C° 0.1 mm 5 mps 745 mmHg 83%
    19:00 -4°C° 0 mm 6 mps 746 mmHg 79%
    20:00 -5°C° 0 mm 6 mps 746 mmHg 76%
    21:00 -8°C° 0 mm 7 mps 747 mmHg 72%
    22:00 -8°C° 0 mm 6 mps 747 mmHg 72%
    23:00 -9°C° 0 mm 6 mps 748 mmHg 71%

    28 February, Thursday

    Time Temperature Precipitation Wind Pressure Humidity
    00:00 -8°C° 0 mm 5 mps 748 mmHg 70%
    01:00 -10°C° 0 mm 5 mps 748 mmHg 69%
    02:00 -10°C° 0 mm 5 mps 748 mmHg 68%
    03:00 -9°C° 0 mm 4 mps 749 mmHg 67%
    04:00 -9°C° 0 mm 4 mps 749 mmHg 68%
    05:00 -8°C° 0 mm 3 mps 749 mmHg 68%
    06:00 -9°C° 0 mm 3 mps 750 mmHg 68%
    07:00 -8°C° 0 mm 3 mps 750 mmHg 65%
    08:00 -8°C° 0 mm 3 mps 750 mmHg 62%
    09:00 -7°C° 0 mm 3 mps 751 mmHg 59%
    10:00 -6°C° 0 mm 3 mps 750 mmHg 56%
    11:00 -5°C° 0 mm 2 mps 750 mmHg 53%
    12:00 -4°C° 0 mm 2 mps 750 mmHg 50%
    13:00 -3°C° 0 mm 2 mps 749 mmHg 49%
    14:00 -3°C° 0 mm 2 mps 749 mmHg 49%
    15:00 -3°C° 0 mm 2 mps 749 mmHg 48%
    16:00 -1°C° 0 mm 1 mps 749 mmHg 51%
    17:00 -1°C° 0 mm 1 mps 749 mmHg 54%
    18:00 -1°C° 0 mm 1 mps 749 mmHg 56%
    19:00 -2°C° 0 mm 1 mps 749 mmHg 60%
    20:00 -2°C° 0 mm 1 mps 749 mmHg 64%
    21:00 -4°C° 0 mm 2 mps 749 mmHg 68%
    22:00 -4°C° 0 mm 2 mps 749 mmHg 70%
    23:00 -4°C° 0 mm 2 mps 749 mmHg 72%
    Show more